Regional Weather Roundup
Issued by NWS Boston, MA

Current Version | Previous Version | Text Only | Print | Product List | Glossary Off
Versions: 1 2 3 4 5 6 7 8 9 10 11 12 13 14 15 16 17 18 19 20 21 22 23 24 25 26 27 28 29 30 31 32 33 34 35 36 37 38 39 40 41 42 43 44 45 46 47 48 49 50
190 ASUS41 KBOX 281610 RWRBOX REGIONAL WEATHER ROUNDUP NATIONAL WEATHER SERVICE TAUNTON MA 1200 PM EDT SUN MAY 28 2017 NOTE: "FAIR" INDICATES FEW OR NO CLOUDS BELOW 12,000 FEET WITH NO SIGNIFICANT WEATHER AND/OR OBSTRUCTIONS TO VISIBILITY. MAZALL-281700- EASTERN MASSACHUSETTS CITY SKY/WX TMP DP RH WIND PRES REMARKS BOSTON PTSUNNY 63 57 81 E12 29.97R BEVERLY PTSUNNY 65 57 75 SE10 29.97R LAWRENCE SUNNY 71 58 63 VRB7 29.97S BEDFORD PTSUNNY 69 54 58 E3 29.93F BLUE HILL N/A 69 54 58 VRB3 29.95S NORWOOD PTSUNNY 72 59 63 S6 29.94F MARSHFIELD SUNNY 64 54 68 SE12 29.97R PLYMOUTH SUNNY 68 53 58 SW6 29.97S TAUNTON SUNNY 69 51 52 SW8 29.97R NEW BEDFORD SUNNY 65 52 62 S10 29.97S $$ MAZALL-281700- CAPE COD AND THE ISLANDS CITY SKY/WX TMP DP RH WIND PRES REMARKS FALMOUTH N/A N/A N/A N/A MISG N/A HYANNIS PTSUNNY 60 48 64 S8 29.99R CHATHAM SUNNY 58 48 69 SE9 30.01R PROVINCETOWN CLOUDY 65 51 60 S10 29.99S NANTUCKET SUNNY 57 47 69 SE13 30.01R MARTHAS VNYRD CLOUDY 65 49 56 SW12 30.00R $$ MAZALL-281700- CENTRAL AND WESTERN MASSACHUSETTS CITY SKY/WX TMP DP RH WIND PRES REMARKS WORCESTER CLOUDY 65 52 62 VRB5 29.96S FITCHBURG CLOUDY 69 55 60 S5 29.95F ORANGE CLOUDY 68 55 63 S7 29.94S SPRINGFIELD CLOUDY 69 57 64 S5 29.93S WESTFIELD CLOUDY 69 58 67 VRB6 29.94S NORTH ADAMS CLOUDY 69 52 54 SE8 29.93R $$ RIZALL-281700- RHODE ISLAND CITY SKY/WX TMP DP RH WIND PRES REMARKS PROVIDENCE PTSUNNY 65 56 72 SE14 29.97S NEWPORT MOSUNNY 63 53 70 S12 29.98S BLOCK ISLAND MOSUNNY 61 51 70 S13 30.00R SMITHFIELD MOSUNNY 69 58 67 SE9 29.96S WESTERLY CLOUDY 62 52 69 S10 30.00R $$ CTZALL-281700- CONNECTICUT CITY SKY/WX TMP DP RH WIND PRES REMARKS BRADLEY INTL CLOUDY 71 56 58 SW6 29.94S HARTFORD CLOUDY 70 59 68 S6 29.94S BRIDGEPORT CLOUDY 65 56 72 E12 29.96R DANBURY CLOUDY 68 59 73 SE9 29.96R GROTON CLOUDY 62 52 69 S9 29.98R NEW HAVEN CLOUDY 65 55 70 E12 29.97R CHESTER PTSUNNY 66 55 68 SW8 29.97S MERIDEN CLOUDY 68 56 65 SE10 29.95S WILLIMANTIC CLOUDY 69 57 65 S7 29.97S OXFORD PTSUNNY 68 55 64 S7G16 29.97R $$ MEZ002-015-021-024-NHZ003-005-008-011-012-014-VTZ005-008-281700- NORTHERN NEW ENGLAND CITY SKY/WX TMP DP RH WIND PRES REMARKS PORTLAND ME CLOUDY 57 47 69 S9 30.00R BANGOR ME MOSUNNY 65 49 56 SE3 29.96F CONCORD NH MOSUNNY 71 53 52 VRB5 29.94S MANCHESTER NH PTSUNNY 71 52 50 VRB6 29.93S NASHUA NH CLOUDY 70 54 56 VRB5 29.94F PORTSMOUTH NH CLOUDY 57 51 81 SE10 29.97R JAFFREY NH CLOUDY 68 53 58 CALM 29.95S KEENE NH PTSUNNY 70 55 59 S6 29.94S BURLINGTON VT PTSUNNY 76 50 40 VRB5 29.89S MT. WASHINGTON PTSUNNY 48 41 76 SE8 N/A $$ NYZ052-076-281700- EASTERN NEW YORK CITY SKY/WX TMP DP RH WIND PRES REMARKS ALBANY CLOUDY 70 54 56 S5 29.93R NEW YORK CITY PTSUNNY 69 57 65 S12 29.94R $$ ANZALL-281700- MARINE OBSERVATIONS STATION/POSITION TIME TEMP WIND PRES VSBY WAVE AIR SEA DIR/SP/G HT/PER (UTC) (F) (DEG/KT/KT) (MB) (MI) (FT/S) BOSTON BUOY 1550 55 55 110/ 10/ 12 1014.8R 2/ 8 BUZZARDS BAY 1500 55 200/ 6/ 7 1015.9R NANTUCKET SOUND 1550 55 1015.7R 1 MASS BAY-STELLWA 1504 54 52 110/ 8/ 10 1014.4R 2/ 8 ISLE OF SHOALS 1500 51 110/ 6/ 7 1015.1R S OF BLOCK IS 1555 57 N/A 2/ 8 $$ ......................KEY......................... SKY/WX - SKY CONDITION/PRESENT WEATHER TMP - TEMPERATURE IN FAHRENHEIT DWPT - DEWPOINT IN FAHRENHEIT RH - RELATIVE HUMIDITY IN PERCENT WIND - DIRECTION AND SPEED IN MPH PRES - MEAN SEA LEVEL PRESSURE IN INCHES OF HG WCI - WIND CHILL INDEX VSB - VISIBILITY IN MILES HX - HEAT INDEX TC - TEMPERATURE IN CELSIUS VRB - VARIABLE WIND DIRECTION N/A - NOT AVAILABLE

USA.gov is the U.S. government's official web portal to all federal, state and local government web resources and services.